Starlink 31734

operational
NORAD ID: 59534 Int'l Des: 2024-074 Owner: SPXS Country: US Constellation: starlink
LEOCIRCULAR

关于 Starlink 31734

正在加载描述...

实时位置

正在加载3D地球...

即将过境

高度历史

Altitude vs Time

uPlot chart will show altitude changes over time

两行轨道根数

1 59534U 24074A 25351.32484030 -.00000048 00000-0 77994-5 0 9997
2 59534 42.9994 77.7801 0001896 284.5349 75.5292 15.27583839 93546
Epoch: Dec 17, 2025 • Age: 16 hours

当前状态

高度 487.4 km
速度 7.62 km/s
星下点 -23.01°S, 29.7°W
发射日期 Apr 18, 2024
运行时间 1.6 years
类型 internet

技术详情

分类 Payload
质量 730.00 kg
干质量 700.00 kg
总质量 730.00 kg
长度 0.30 m
直径 4.10 m
跨度 29.00 m
形状 Box + pan
制造商 SPXS
平台类型 Starlink V2M
阶段状态 In Orbit
所有者/国家 SPXS/US

大型星座

Loading constellations...